Regional Weather Roundup
Issued by NWS

Home | Current Version | Previous Version | Graphics & Text | Print | Product List | Glossary On
Versions: 1 2 3 4 5 6 7 8 9 10 11 12 13 14 15 16 17 18 19 20 21 22 23 24 25 26 27 28 29 30 31 32 33 34 35 36 37 38 39 40 41 42 43 44 45 46 47 48 49 50
000
ASUS43 KBIS 210302
RWRND

NORTH DAKOTA REGIONAL WEATHER ROUNDUP
NATIONAL WEATHER SERVICE BISMARCK ND
900 PM CST SAT JAN 20 2018

NOTE: "FAIR" INDICATES FEW OR NO CLOUDS BELOW 12,000 FEET WITH NO
SIGNIFICANT WEATHER AND/OR OBSTRUCTIONS TO VISIBILITY.


NDZ001>003-009>011-017-210400-
NORTHWEST NORTH DAKOTA

CITY           SKY/WX    TMP DP  RH WIND       PRES   REMARKS
WILLISTON      CLEAR     20  15  81 SW3       29.93R
MINOT          CLEAR     29  20  69 W9        29.90R
MINOT AFB      CLEAR     24  19  80 W7        29.89R WCI  16
$$

NDZ018>021-031>035-040>046-210400-
SOUTHWEST NORTH DAKOTA

CITY           SKY/WX    TMP DP  RH WIND       PRES   REMARKS
BISMARCK       MOCLDY    24  21  88 S3        29.94R
DICKINSON      MOCLDY    26  21  81 W12       29.91R WCI  16
GARRISON         N/A     28  20  71 W9        29.90S WCI  19
HETTINGER ARPT CLOUDY    28  21  75 W6        29.95R
$$

NDZ004>008-012>016-024-026-027-054-210400-
NORTHEAST NORTH DAKOTA

CITY           SKY/WX    TMP DP  RH WIND       PRES   REMARKS
GRAND FORKS    FAIR      21  19  92 S5        29.88S WCI  15
GRND FRKS AFB  FAIR      29  24  79 NW10      29.87F
DEVILS LAKE    FAIR      23  20  88 SW5       29.89S WCI  17
$$

NDZ022-023-025-028>030-036>039-047>053-210400-
SOUTHEAST NORTH DAKOTA

CITY           SKY/WX    TMP DP  RH WIND       PRES   REMARKS
FARGO          FAIR      31  28  89 W3        29.91S
JAMESTOWN      PTCLDY    30  26  85 SW9       29.90R
$$




USA.gov is the U.S. government's official web portal to all federal, state and local government web resources and services.